COSMOS 1275 DEB, 12670

Orbit data source: Space-Track

COSMOS 1275 DEB, 12670 is space debris in LEO originally from a launch on Thu, 04 Jun 1981 UTC launched from the Plesetsk Missile And Space Complex (PKMTR). Debris objects in space refer to the collection of defunct objects orbiting the Earth. Examples of debris include non-operational satellites, rocket bodies, and fragments generated from explosions, collisions, or faulty payload assembly.

Loading next visibility...
Identifier
12670, 1981-053AA
Orbit
LEO
Last TLE update
12 hours ago
Origin
Manufacturer
Unknown
Mission
Spacecraft
Bus & Motor
Unknown
Mass
Unknown
Launch date (UTC)
1981-06-04 (44 years ago)
Launch vehicle
Unknown
Launch site
Plesetsk Missile And Space Complex (PKMTR)
Object type
Payload
Rocket body
Debris
Shape & HBR
Unknown
Radar Cross Section
Medium (>0.1 m² and <1 m²)

Expand to show TLE details & history

TLE from 12 hours ago
0 COSMOS 1275 DEB
1 12670U 81053AA  25169.64935477  .00000464  00000-0  42132-3 0  9990
2 12670  82.9405 116.6521 0056742  11.2932 168.1883 13.80773373203596
Epoch: 2025-06-18T15:35Z
TLE epoch observation values (Epoch: 2025-06-18T15:35:04.252Z)
Latitude
0.27025°
Longitude
155.72273°
Altitude
1,004.799 km
Speed
7.329 km/s
True Right ascension
19h 46m 28s
True Declination
0° 16' 07"
Sunlit
Object was in full shadow at epoch
Visualization orbit readout
Latitude
8.39097°
Longitude
154.33648°
Altitude
1,002.856 km
Speed
7.331 km/s
Apparent Right ascension
22h 11m 20s
Apparent Declination
-20° 59' 14"
Sunlit
Object is in full shadow
Visualization observer readout
Local Sidereal Time
14:33:09
Azimuth
91.742° ESE
Elevation
-31.823°
Doppler factor
1
Orbital elements
Apogee altitude
999.914 km
Perigee altitude
916.657 km
Semi-major axis
7,336.423 km
Eccentricity
0.00567
Inclination
82.9405°
RAAN
116.6521°
Arg. of periapsis
11.2932°
True anomaly
Unknown
Mean anomaly
168.1883°
Eccentric anomaly
Unknown
Mean motion
3.45395 °/min
Orbital period
104.23 mins
BSTAR
0.00042132
Loading maneuver chart data...
Loading SW <> Apogee altitude chart data...
Loading historical data...
Loading historical data...
Loading historical data...
Loading historical data...
Loading historical data...
Loading historical data...
Loading historical data...

COSMOS 1275 DEB Visibility forecast

Observer location: undefined°, undefined°

Span
Click to sort rows by Start time (UTC) header in descending order
Start Az.
Max El. time (UTC)
Max El. Az.
Max El.
End time (UTC)
End Az.
7 mins2025-06-19 06:58:07.883Z34.091° NE2025-06-19 07:01:07.883Z66.165° ENE17.483°2025-06-19 07:05:07.883Z108.095° ESE
11 mins2025-06-19 08:42:07.883Z345.022° N2025-06-19 08:47:07.883Z256.769° W42.526°2025-06-19 08:53:07.883Z185.997° SSW
9 mins2025-06-19 20:24:07.883Z148.74° SSE2025-06-19 20:28:07.883Z95.821° ESE31.091°2025-06-19 20:33:07.883Z26.895° NE
8 mins2025-06-19 22:10:07.883Z238.697° WSW2025-06-19 22:13:07.883Z278.904° WNW25.772°2025-06-19 22:18:07.883Z342.34° N
|